Simultaneous Nadir Overpasses (SNOs) Predictions

Prediction of SNOs between GOES-17 and NOAA-20 Satellite Orbit:

Table of predicted SNOs for the next 14.0 days since TLE Epoch: 11/16/2024
Index Date Time (GOES-17) GOES-17 Lat,Lon NOAA-20 Lat,Lon Distance(km) Time Diff (sec)
1 11/16/2024 08:10:00 -0.00,-104.69 -0.61,-102.04 302.49 80
2 11/17/2024 20:31:54 0.00,-104.67 -0.61,-107.33 303.77 80
3 11/18/2024 20:15:49 -0.00,-104.67 0.42,-102.80 212.96 80
4 11/20/2024 08:37:34 0.01,-104.69 0.76,-108.06 384.92 80
5 11/21/2024 08:16:08 0.01,-104.68 -0.22,-103.52 131.56 80
6 11/22/2024 20:38:03 -0.01,-104.66 -0.93,-108.83 474.93 80
7 11/23/2024 20:21:57 -0.01,-104.66 0.06,-104.29 42.36 80
8 11/26/2024 08:24:55 0.02,-104.69 0.11,-105.01 36.91 80
9 11/27/2024 08:03:30 0.02,-104.69 -0.94,-100.48 480.09 80
10 11/28/2024 20:25:24 -0.02,-104.66 -0.25,-105.78 126.36 80
11 11/29/2024 20:09:18 -0.03,-104.66 0.75,-101.24 391.02 80
